USA 149 (DSP 20)

Last updated on Fri Apr 18 2025 00:02:38 GMT+0000 (Coordinated Universal Time)

1 26356U 00024A 25107.34934428 .00000104 00000+0 00000+0 0 9993 2 26356 12.8489 14.7876 0000962 176.3176 334.9984 1.00274142 28648
UTC large
Height (km)
Speed (km/s)
/
Latitude / Longitude
Inclination (degrees)
Orbital Period (minutes)
Azimuth
Elevation
Range (km)
Doppler Factor

Next 0 passes for location: London (51.5072 / 0.1276)

Sorry there are no passes over London.